Hyannis, MA

10:03 PM EDT on August 28, 2016 (GMT -0400)
Barnstable Municipal-Boardman-Polando Field

Weather History for KHYA - April, 2012

Change the Weather History Date:

Wednesday, April 11, 2012

  Actual Average Record
Temperature  
Mean Temperature 43 °F -  
Max Temperature 54 °F 51 °F 75 °F (1955)
Min Temperature 33 °F 34 °F 23 °F (1977)
Degree Days  
Heating Degree Days 22    
Moisture  
Dew Point 37 °F    
Average Humidity 75    
Maximum Humidity 96    
Minimum Humidity 54    
Precipitation  
Precipitation 0.00 in - - ()
Sea Level Pressure  
Sea Level Pressure 29.77 in    
Wind  
Wind Speed 6 mph (NNE)    
Max Wind Speed 17 mph    
Max Gust Speed 25 mph    
Visibility 10 miles    
Events      
Averages and records for this station are not official NWS values.
T = Trace of Precipitation, MM = Missing Value Source: NWS Daily Summary

Daily Weather History Graph

Daily Weather History Graph

Search for Another Location

Airport or City:

Trip Planner

Search our weather history database for the weather conditions in past years. The results will help you decide how hot, cold, wet, or windy it might be!

Date:

Astronomy

Apr. 11, 2012 Rise Set
Actual Time 6:06 AM EDT 7:17 PM EDT
Civil Twilight 5:38 AM EDT 7:46 PM EDT
Nautical Twilight 5:04 AM EDT 8:20 PM EDT
Astronomical Twilight 4:28 AM EDT 8:56 PM EDT
Moon 12:13 AM EDT (4/11) 9:48 AM EDT (4/11)
Length of Visible Light 14h 08m
Length of Day
13h 11m
Waning Gibbous, 69% of the Moon is Illuminated
Apr 11
Waning Gibbous
Apr 13
Last Quarter
Apr 21
New
Apr 29
First Quarter
May 5
Full

Hourly Weather History & Observations

Time (EDT) Temp. Windchill Dew Point Humidity Pressure Visibility Wind Dir Wind Speed Gust Speed Precip Events Conditions
12:56 AM 43.0 °F 39.5 °F 39.0 °F 86% 29.75 in 10.0 mi West 5.8 mph - N/A   Clear
1:56 AM 42.1 °F - 39.0 °F 89% 29.75 in 10.0 mi Calm Calm - N/A   Clear
2:56 AM 37.0 °F - 35.1 °F 93% 29.73 in 8.0 mi Calm Calm - N/A   Clear
3:56 AM 35.1 °F - 33.1 °F 92% 29.73 in 10.0 mi Calm Calm - N/A   Clear
4:56 AM 33.1 °F - 32.0 °F 96% 29.74 in 10.0 mi Calm Calm - N/A   Clear
5:56 AM 35.1 °F - 33.1 °F 92% 29.77 in 10.0 mi Calm Calm - N/A   Mostly Cloudy
6:56 AM 39.0 °F 36.8 °F 36.0 °F 89% 29.77 in 10.0 mi North 3.5 mph - N/A   Scattered Clouds
7:56 AM 48.0 °F - 35.1 °F 61% 29.78 in 10.0 mi NE 8.1 mph - N/A   Mostly Cloudy
8:56 AM 50.0 °F - 33.8 °F 54% 29.77 in 10.0 mi North 12.7 mph - N/A   Scattered Clouds
9:56 AM 48.0 °F - 33.1 °F 56% 29.79 in 10.0 mi North 15.0 mph - N/A   Mostly Cloudy
10:56 AM 50.0 °F - 34.0 °F 54% 29.78 in 10.0 mi North 15.0 mph 24.2 mph N/A   Scattered Clouds
11:56 AM 50.0 °F - 36.0 °F 59% 29.76 in 10.0 mi North 13.8 mph 25.3 mph N/A   Clear
12:56 PM 52.0 °F - 37.9 °F 59% 29.75 in 10.0 mi North 13.8 mph 23.0 mph N/A   Clear
1:56 PM 53.1 °F - 37.9 °F 57% 29.74 in 10.0 mi North 15.0 mph 23.0 mph N/A   Clear
2:56 PM 51.8 °F - 39.2 °F 62% 29.73 in 10.0 mi North 17.3 mph - N/A   Clear
3:56 PM 51.1 °F - 39.9 °F 66% 29.74 in 10.0 mi North 16.1 mph 20.7 mph N/A   Clear
4:56 PM 51.1 °F - 36.0 °F 56% 29.75 in 10.0 mi NE 13.8 mph 24.2 mph N/A   Clear
5:56 PM 51.1 °F - 42.1 °F 71% 29.77 in 10.0 mi NNE 9.2 mph - N/A   Mostly Cloudy
6:12 PM 50.0 °F - 42.8 °F 76% 29.77 in 10.0 mi East 8.1 mph - N/A   Overcast
6:56 PM 48.0 °F - 41.0 °F 77% 29.78 in 10.0 mi East 5.8 mph - N/A   Mostly Cloudy
7:56 PM 46.0 °F 43.9 °F 39.9 °F 79% 29.80 in 10.0 mi East 4.6 mph - N/A   Mostly Cloudy
8:56 PM 42.1 °F - 37.9 °F 85% 29.82 in 10.0 mi Calm Calm - N/A   Clear
9:56 PM 42.1 °F - 37.9 °F 85% 29.83 in 10.0 mi Calm Calm - N/A   Partly Cloudy
10:56 PM 42.1 °F 40.2 °F 37.9 °F 85% 29.83 in 10.0 mi North 3.5 mph - N/A   Clear
11:56 PM 43.0 °F 41.3 °F 39.9 °F 89% 29.83 in 10.0 mi North 3.5 mph - N/A   Clear